Location: Marcé
(47.5801°N, 0.3280°W)
Time: 20:54:26
(UTC+01:00)

Altair - Pass Details

Date: 14 December 2021
Orbit: 1501 x 1683 km, 47.2° (Epoch: 20 January)

Event Time Altitude Azimuth Distance (km) Brightness Sun altitude
Rises 16:13:17 0° 264° (W) 4,816 11.0 6.5°
Reaches altitude 10° 16:16:25 10° 264° (W) 3,806 10.5 6.1°
Maximum altitude 16:26:06 88° 176° (S) 1,556 7.7 4.9°
Drops below altitude 10° 16:35:25 10° 89° (E) 3,678 9.1 3.8°
Sets 16:38:24 0° 89° (E) 4,648 9.6 3.4°
